GW4137 Weather Reports


Display with metric or nautical units.
time (UTC)temp
F
wind
direction
speed
MPH
gust
MPH
rain 1hr
in
rain 24hr
in
rain mn
in
humidity
%
barometer
mb
20260901120109 50 0 0.0 2.0 0.00 0.00 0.00 70 1012.6
20260901114552 49 0 0.0 1.0 0.00 0.00 0.00 72 1012.6
20260901113101 50 0 0.0 4.0 0.00 0.00 0.00 69 1012.7
20260901111601 51 0 0.0 4.0 0.00 0.00 0.00 67 1012.9
20260901110053 52 0 0.0 4.0 0.00 0.00 0.00 66 1012.9
20260901104601 53 160 4.0 6.0 0.00 0.00 0.00 64 1012.7
20260901103104 54 167 4.0 5.0 0.00 0.00 0.00 63 1012.8
20260901101554 54 0 3.0 4.0 0.00 0.00 0.00 64 1013.1
20260901100055 52 0 0.0 6.0 0.00 0.00 0.00 69 1013.1
20260901094559 48 169 4.0 6.0 0.00 0.00 0.00 74 1013.0
20260901093056 47 169 3.0 5.0 0.00 0.00 0.00 73 1013.0
20260901091604 49 169 3.0 5.0 0.00 0.00 0.00 71 1013.0
20260901084607 48 169 3.0 5.0 0.00 0.00 0.00 71 1013.1
20260901083103 48 169 3.0 6.0 0.00 0.00 0.00 71 1013.1
20260901081556 49 169 4.0 6.0 0.00 0.00 0.00 70 1013.2
20260901080107 51 169 3.0 5.0 0.00 0.00 0.00 67 1013.4
20260901074556 49 169 4.0 5.0 0.00 0.00 0.00 69 1013.6
20260901073100 49 0 0.0 0.0 0.00 0.00 0.00 68 1013.7
20260901071602 49 0 0.0 4.0 0.00 0.00 0.00 69 1013.8
20260901070100 49 169 4.0 5.0 0.00 0.00 0.00 67 1013.7
20260901064603 50 169 2.0 5.0 0.00 0.00 0.00 67 1013.8
20260901063058 50 169 3.0 5.0 0.00 0.00 0.00 66 1013.8
20260901061555 52 169 2.0 5.0 0.00 0.00 0.00 63 1014.0
20260901060101 54 169 4.0 6.0 0.00 0.00 0.00 57 1013.9
20260901054553 58 0 0.0 5.0 0.00 0.00 0.00 53 1014.0
20260901053106 58 169 0.0 4.0 0.00 0.00 0.00 52 1014.2
20260901051555 58 169 1.0 6.0 0.00 0.00 0.00 53 1014.1
20260901050055 57 0 0.0 0.0 0.00 0.00 0.00 55 1014.1
20260901044607 57 0 0.0 2.0 0.00 0.00 0.00 55 1014.2
20260901043100 57 0 0.0 2.0 0.00 0.00 0.00 55 1014.1
20260901041555 58 169 1.0 4.0 0.00 0.00 0.00 52 1014.0
20260901040057 60 0 0.0 4.0 0.00 0.00 0.00 49 1014.0
20260901034556 58 169 1.0 2.0 0.00 0.00 0.00 51 1014.0
20260901033054 59 0 0.0 0.0 0.00 0.00 0.00 49 1013.7
20260901031601 59 0 0.0 0.0 0.00 0.00 0.00 49 1013.7
20260901030057 59 0 0.0 0.0 0.00 0.00 0.00 48 1013.5
20260901024614 60 0 0.0 0.0 0.00 0.00 0.00 47 1013.3
20260901023100 62 0 0.0 2.0 0.00 0.00 0.00 43 1013.3
20260901021603 65 0 0.0 4.0 0.00 0.00 0.00 40 1013.2
20260901020100 68 0 0.0 2.0 0.00 0.00 0.00 38 1013.4
20260901014606 70 169 2.0 5.0 0.00 0.00 0.00 35 1013.5
20260901013117 73 169 3.0 6.0 0.00 0.00 0.00 32 1013.5
20260901011613 74 169 3.0 6.0 0.00 0.00 0.00 31 1013.5
20260901010123 75 169 3.0 9.0 0.00 0.00 0.00 30 1013.6
20260901004603 75 169 5.0 11.0 0.00 0.00 0.00 30 1013.7
20260901003057 75 169 6.0 12.0 0.00 0.00 0.00 30 1013.8
20260901001600 75 147 6.0 10.0 0.00 0.00 0.00 30 1013.9
20260831234630 76 182 2.0 8.0 0.00 0.00 0.00 30 1014.0
20260831233058 75 191 3.0 10.0 0.00 0.00 0.00 31 1014.0
20260831231552 75 0 0.0 9.0 0.00 0.00 0.00 30 1014.0
20260831230106 75 239 3.0 13.0 0.00 0.00 0.00 31 1014.1
20260831224554 75 298 1.0 11.0 0.00 0.00 0.00 31 1014.2
20260831223057 75 266 2.0 8.0 0.00 0.00 0.00 31 1014.3
20260831221603 74 296 1.0 8.0 0.00 0.00 0.00 31 1014.3
20260831220059 75 247 3.0 7.0 0.00 0.00 0.00 32 1014.4
20260831214605 74 0 5.0 15.0 0.00 0.00 0.00 33 1014.4
20260831213104 74 0 1.0 11.0 0.00 0.00 0.00 34 1014.5
20260831211558 73 309 8.0 13.0 0.00 0.00 0.00 34 1014.6
20260831210054 73 224 2.0 17.0 0.00 0.00 0.00 34 1014.5
20260831204609 73 250 6.0 12.0 0.00 0.00 0.00 35 1014.7
20260831203103 73 0 0.0 17.0 0.00 0.00 0.00 35 1014.7
20260831201608 72 245 5.0 14.0 0.00 0.00 0.00 37 1015.1
20260831200106 72 0 1.0 12.0 0.00 0.00 0.00 38 1015.1
20260831194603 71 265 7.0 16.0 0.00 0.00 0.00 38 1015.3
20260831193128 71 302 4.0 14.0 0.00 0.00 0.00 39 1015.3
20260831191554 71 265 6.0 13.0 0.00 0.00 0.00 38 1015.5
20260831190104 70 234 3.0 16.0 0.00 0.00 0.00 40 1015.6
20260831184558 69 293 2.0 12.0 0.00 0.00 0.00 41 1015.9
20260831183101 69 0 5.0 15.0 0.00 0.00 0.00 42 1016.1
20260831181608 68 302 2.0 12.0 0.00 0.00 0.00 43 1016.2
20260831180108 68 0 2.0 14.0 0.00 0.00 0.00 43 1016.2
20260831174556 68 317 7.0 14.0 0.00 0.00 0.00 44 1016.4
20260831173103 67 324 7.0 14.0 0.00 0.00 0.00 44 1016.3
20260831171555 67 324 8.0 14.0 0.00 0.00 0.00 46 1016.2
20260831170100 66 320 9.0 19.0 0.00 0.00 0.00 46 1016.1
20260831164609 65 332 11.0 19.0 0.00 0.00 0.00 47 1016.1
20260831163059 64 308 10.0 17.0 0.00 0.00 0.00 46 1016.0
20260831161605 64 297 10.0 18.0 0.00 0.00 0.00 47 1016.0
20260831160108 63 298 10.0 20.0 0.00 0.00 0.00 48 1015.9
20260831154627 62 308 12.0 18.0 0.00 0.00 0.00 49 1016.0
20260831153104 60 288 10.0 16.0 0.00 0.00 0.00 52 1015.9
20260831151608 59 292 13.0 20.0 0.00 0.00 0.00 54 1015.9
20260831150107 57 294 13.0 19.0 0.00 0.00 0.00 56 1015.7
20260831144604 56 291 9.0 19.0 0.00 0.00 0.00 59 1015.6
20260831143057 55 279 11.0 17.0 0.00 0.00 0.00 60 1015.3
20260831141554 54 287 9.0 15.0 0.00 0.00 0.00 63 1015.3
20260831140055 52 289 5.0 11.0 0.00 0.00 0.00 66 1015.3
20260831134606 51 296 4.0 9.0 0.00 0.00 0.00 69 1015.2
20260831133056 49 292 3.0 9.0 0.00 0.00 0.00 71 1015.0
20260831131601 48 292 5.0 11.0 0.00 0.00 0.00 73 1014.7
20260831130111 48 286 5.0 9.0 0.00 0.00 0.00 74 1014.7
20260831124553 48 285 5.0 9.0 0.00 0.01 0.00 74 1014.4
20260831123054 48 284 5.0 10.0 0.00 0.01 0.00 72 1014.1
20260831121600 49 293 7.0 12.0 0.00 0.01 0.00 70 1013.8